Date String (YYYY-MM-DD hh:mm:ss) UTC,Instrument flags,absolute air pressure of the measurement (hPa),sample flow rate (lpm),inlet stack bypass flow (lpm),air temperature of the measurement (°C),ambient temperature measured by the external sensor (°C),aerosol sample conditioner tube jacket temperature (°C),OPC LED temperature (°C),internal box temperature (°C),relative humidity of the measurement (%),span deviation,mass concentration of particles derived from Lorenz-Mie calculation of OPC scattering (μg/m³),mass concentration of particles derived from Lorenz-Mie calculation of OPC scattering (μg/m³),mass concentration of particles derived from Lorenz-Mie calculation of OPC scattering (μg/m³)
DateTimeUTC,F1_M11,P_M11,Q1_M11,Q2_M11,T1_M11,T2_M11,T3_M11,T4_M11,T5_M11,U1_M11,ZSPAN_M11,X0_M11,X2_M11,X1_M11
2023-10-20 01:00:00,SystemResetWarning,0833.7,5.01,000.00,028.2,023.6,000.0,036.5,029.6,14.2,0000.0,0015.88,0003.05,0001.00
2023-10-20 01:01:00,SystemResetWarning,0833.7,5.02,000.00,028.1,023.7,000.0,036.5,029.5,14.2,0000.0,0015.19,0002.95,0001.01
2023-10-20 01:02:00,SystemResetWarning,0833.7,4.99,000.00,028.0,024.1,000.0,036.5,029.4,14.3,0000.0,0015.71,0002.88,0001.02
2023-10-20 01:03:00,SystemResetWarning,0833.7,5.00,000.00,027.9,024.6,000.0,036.5,029.4,14.3,0000.0,0015.24,0002.87,0001.03
2023-10-20 01:04:00,SystemResetWarning,0833.6,5.00,000.00,027.9,025.1,000.0,036.5,029.5,14.3,0000.0,0014.12,0002.84,0001.04
2023-10-20 01:05:00,SystemResetWarning,0833.7,5.01,000.00,027.9,025.5,000.0,036.5,029.6,14.3,0000.0,0014.93,0002.84,0001.05
2023-10-20 01:06:00,SystemResetWarning,0833.6,5.00,000.00,027.9,025.8,000.0,036.5,029.7,14.3,0000.0,0014.67,0002.96,0001.07
2023-10-20 01:07:00,SystemResetWarning,0833.7,5.00,000.00,028.0,026.1,000.0,036.5,029.7,14.3,0000.0,0015.67,0003.11,0001.10
2023-10-20 01:08:00,SystemResetWarning,0833.7,5.00,000.00,028.0,026.4,000.0,036.5,029.8,14.2,0000.0,0015.01,0003.10,0001.11
2023-10-20 01:09:00,SystemResetWarning,0833.7,5.01,000.00,028.0,026.6,000.0,036.5,029.8,14.2,0000.0,0014.50,0003.09,0001.11
2023-10-20 01:10:00,SystemResetWarning,0833.7,5.00,000.00,028.1,026.8,000.0,036.5,029.9,14.2,0000.0,0015.04,0003.10,0001.11
2023-10-20 01:11:00,SystemResetWarning,0833.7,5.00,000.00,028.1,026.9,000.0,036.5,030.0,14.1,0000.0,0015.64,0003.02,0001.10
2023-10-20 01:12:00,SystemResetWarning,0833.7,5.00,000.00,028.2,027.1,000.0,036.5,030.0,14.0,0000.0,0016.85,0003.14,0001.12
2023-10-20 01:13:00,SystemResetWarning,0833.8,5.00,000.00,028.2,027.2,000.0,036.6,030.1,14.0,0000.0,0017.94,0003.19,0001.14
2023-10-20 01:14:00,SystemResetWarning,0833.7,5.00,000.00,028.3,027.3,000.0,036.6,030.1,13.9,0000.0,0018.82,0003.25,0001.16
2023-10-20 01:15:00,SystemResetWarning,0833.8,5.00,000.00,028.3,027.4,000.0,036.6,030.2,13.8,0000.0,0020.42,0003.31,0001.19
2023-10-20 01:16:00,SystemResetWarning,0833.8,5.00,000.00,028.4,027.0,000.0,036.6,030.2,13.9,0000.0,0019.61,0003.33,0001.22
2023-10-20 01:17:00,SystemResetWarning,0833.8,4.98,000.00,028.3,025.2,000.0,036.6,030.0,13.8,0000.0,0019.45,0003.34,0001.22
2023-10-20 01:18:00,SystemResetWarning,0833.8,5.02,000.00,028.2,024.5,000.0,036.5,029.8,13.7,0000.0,0018.19,0003.31,0001.21
2023-10-20 01:19:00,SystemResetWarning,0833.7,5.00,000.00,028.1,024.7,000.0,036.5,029.6,13.6,0000.0,0018.54,0003.32,0001.21
2023-10-20 01:20:00,SystemResetWarning,0833.7,5.00,000.00,028.1,025.0,000.0,036.5,029.6,13.4,0000.0,0018.72,0003.31,0001.24
2023-10-20 01:21:00,SystemResetWarning,0833.8,5.00,000.00,028.0,025.4,000.0,036.5,029.7,13.4,0000.0,0017.88,0003.25,0001.24
2023-10-20 01:22:00,SystemResetWarning,0833.8,5.00,000.00,028.1,025.7,000.0,036.5,029.7,13.6,0000.0,0016.81,0003.24,0001.25
2023-10-20 01:23:00,SystemResetWarning,0833.8,5.00,000.00,028.1,026.0,000.0,036.5,029.8,13.8,0000.0,0015.51,0003.17,0001.23
2023-10-20 01:24:00,SystemResetWarning,0833.8,5.00,000.00,028.1,026.3,000.0,036.6,029.9,13.9,0000.0,0014.29,0003.19,0001.23
2023-10-20 01:25:00,SystemResetWarning,0833.8,5.00,000.00,028.1,026.5,000.0,036.6,029.9,13.9,0000.0,0013.63,0003.14,0001.22
2023-10-20 01:26:00,SystemResetWarning,0833.8,5.00,000.00,028.2,026.7,000.0,036.6,030.0,13.7,0000.0,0011.80,0003.05,0001.20
2023-10-20 01:27:00,SystemResetWarning,0833.8,5.00,000.00,028.2,026.9,000.0,036.6,030.0,13.6,0000.0,0011.40,0002.98,0001.17
2023-10-20 01:28:00,SystemResetWarning,0833.8,5.00,000.00,028.2,027.0,000.0,036.6,030.1,13.6,0000.0,0011.58,0002.94,0001.17
2023-10-20 01:29:00,SystemResetWarning,0833.8,5.00,000.00,028.3,027.1,000.0,036.6,030.1,13.6,0000.0,0011.40,0002.90,0001.18
2023-10-20 01:30:00,SystemResetWarning,0833.8,4.99,000.00,028.3,027.2,000.0,036.7,030.2,13.4,0000.0,0010.84,0002.87,0001.19
2023-10-20 01:31:00,SystemResetWarning,0833.8,4.98,000.00,028.4,027.3,000.0,036.7,030.2,13.4,0000.0,0012.07,0002.86,0001.18
2023-10-20 01:32:00,SystemResetWarning,0833.9,5.00,000.00,028.4,026.9,000.0,036.7,030.2,13.3,0000.0,0012.30,0002.84,0001.17
2023-10-20 01:33:00,SystemResetWarning,0833.8,5.01,000.00,028.3,025.0,000.0,036.6,030.0,13.4,0000.0,0011.77,0002.84,0001.17
2023-10-20 01:34:00,SystemResetWarning,0833.8,5.02,000.00,028.3,024.4,000.0,036.6,029.9,13.5,0000.0,0011.99,0002.87,0001.21
2023-10-20 01:35:00,SystemResetWarning,0833.7,5.00,000.00,028.2,024.6,000.0,036.6,029.7,13.5,0000.0,0012.30,0002.79,0001.21
2023-10-20 01:36:00,SystemResetWarning,0833.8,5.00,000.00,028.1,024.9,000.0,036.6,029.6,13.5,0000.0,0012.21,0002.77,0001.21
2023-10-20 01:37:00,SystemResetWarning,0833.8,5.00,000.00,028.1,025.3,000.0,036.6,029.7,13.2,0000.0,0012.00,0002.79,0001.21
2023-10-20 01:38:00,SystemResetWarning,0833.8,4.99,000.00,028.1,025.7,000.0,036.6,029.8,13.0,0000.0,0012.13,0002.83,0001.22
2023-10-20 01:39:00,SystemResetWarning,0833.9,5.00,000.00,028.1,026.0,000.0,036.6,029.8,13.1,0000.0,0012.57,0002.82,0001.22
2023-10-20 01:40:00,SystemResetWarning,0833.9,5.00,000.00,028.1,026.3,000.0,036.6,029.9,13.3,0000.0,0012.89,0002.81,0001.22
2023-10-20 01:41:00,SystemResetWarning,0833.9,5.00,000.00,028.1,026.5,000.0,036.6,029.9,13.3,0000.0,0013.04,0002.72,0001.21
2023-10-20 01:42:00,SystemResetWarning,0833.9,5.00,000.00,028.2,026.7,000.0,036.6,030.0,13.3,0000.0,0011.63,0002.75,0001.20
2023-10-20 01:43:00,SystemResetWarning,0833.8,5.00,000.00,028.2,026.8,000.0,036.6,030.0,13.2,0000.0,0011.49,0002.81,0001.20
2023-10-20 01:44:00,SystemResetWarning,0833.8,4.99,000.00,028.2,027.0,000.0,036.6,030.1,13.2,0000.0,0012.00,0002.87,0001.21
2023-10-20 01:45:00,SystemResetWarning,0833.8,4.99,000.00,028.3,027.1,000.0,036.7,030.1,13.4,0000.0,0011.90,0002.85,0001.19
2023-10-20 01:46:00,SystemResetWarning,0833.9,4.99,000.00,028.3,027.2,000.0,036.7,030.2,13.0,0000.0,0011.70,0002.94,0001.20
2023-10-20 01:47:00,SystemResetWarning,0833.8,5.01,000.00,028.4,027.3,000.0,036.7,030.2,12.9,0000.0,0011.81,0003.04,0001.23
2023-10-20 01:48:00,SystemResetWarning,0833.9,5.01,000.00,028.4,027.4,000.0,036.7,030.2,13.0,0000.0,0011.78,0003.03,0001.24
2023-10-20 01:49:00,SystemResetWarning,0833.9,5.00,000.00,028.4,027.0,000.0,036.8,030.3,13.0,0000.0,0012.10,0003.06,0001.25
2023-10-20 01:50:00,SystemResetWarning,0833.8,4.98,000.00,028.4,025.2,000.0,036.7,030.0,13.0,0000.0,0011.21,0003.09,0001.28
2023-10-20 01:51:00,SystemResetWarning,0833.8,5.02,000.00,028.3,024.5,000.0,036.6,029.9,13.0,0000.0,0011.30,0003.10,0001.29
2023-10-20 01:52:00,SystemResetWarning,0833.8,5.00,000.00,028.2,024.6,000.0,036.6,029.7,12.9,0000.0,0011.39,0003.14,0001.30
2023-10-20 01:53:00,SystemResetWarning,0833.8,5.00,000.00,028.1,024.9,000.0,036.6,029.7,13.0,0000.0,0011.58,0003.13,0001.32
2023-10-20 01:54:00,SystemResetWarning,0833.8,5.00,000.00,028.1,025.3,000.0,036.6,029.7,13.0,0000.0,0011.58,0003.15,0001.32
2023-10-20 01:55:00,SystemResetWarning,0833.7,4.99,000.00,028.1,025.7,000.0,036.6,029.8,13.0,0000.0,0011.38,0003.14,0001.32
2023-10-20 01:56:00,SystemResetWarning,0833.8,5.00,000.00,028.1,026.0,000.0,036.6,029.8,13.0,0000.0,0011.50,0003.13,0001.30
2023-10-20 01:57:00,SystemResetWarning,0833.8,5.00,000.00,028.1,026.2,000.0,036.6,029.8,12.9,0000.0,0011.44,0003.02,0001.28
2023-10-20 01:58:00,SystemResetWarning,0833.8,5.00,000.00,028.1,026.5,000.0,036.6,029.9,12.7,0000.0,0011.48,0002.86,0001.24
2023-10-20 01:59:00,SystemResetWarning,0833.8,4.99,000.00,028.2,026.7,000.0,036.6,030.0,12.7,0000.0,0012.27,0002.86,0001.23
